Cloud_Cover
0 0 0 0 0 0 0 0 0 0 0 0 9 64 45 72 30 3 94 100 14 7 11 0 0 0 0 0 0 0 0 0
0 0 0 0 0 0 0 0 0 0 0 0 0 4 4 0 63 48 42 65 13 5 4 0 0 0 0 0 0 0 0 0
0 0 0 0 0 0 0 0 0 1 0 0 0 58 90 27 5 31 94 74 17 0 3 0 0 0 0 0 0 0 0 0
0 0 0 0 0 0 0 0 0 0 1 0 8 34 91 10 100 100 4 0 0 1 0 0 0 0 0 0 0 0 0 0
5 80 40 1 0 0 0 0 0 0 1 5 2 7 86 8 97 42 98 24 4 5 0 0 0 0 0 0 0 0 0 0
2 5 2 4 17 0 0 0 0 0 0 0 13 20 61 94 41 100 100 70 4 0 0 0 5 0 0 0 0 0 0 0
2 5 2 4 2 2 0 0 0 0 0 0 0 31 84 91 85 90 99 55 89 4 5 4 0 0 0 0 0 0 0 0
0 13 14 0 0 0 5 2 0 0 0 0 0 3 55 100 100 25 68 78 100 7 3 0 0 0 0 0 0 0 0 0
0 5 6 0 0 1 0 0 0 0 0 0 0 0 0 100 38 97 87 99 32 66 20 1 0 0 0 0 0 0 0 0
0 5 64 8 5 0 0 1 2 0 0 0 0 0 0 15 99 11 1 17 100 100 100 10 0 0 0 0 0 0 0 0
2 0 0 0 5 6 88 4 100 1 3 0 0 0 0 0 32 11 0 13 82 73 52 62 18 5 1 5 2 0 5 5
30 4 0 4 20 100 7 5 5 2 5 5 1 4 0 0 0 0 0 0 4 38 100 100 50 5 3 0 0 0 0 3
25 4 9 4 91 100 100 5 2 4 5 2 0 0 0 0 0 0 0 0 3 1 5 2 76 5 3 0 0 0 0 0
100 91 100 100 100 100 55 2 3 5 25 11 2 0 0 0 0 0 0 0 0 5 5 100 18 0 45 1 0 0 0 0
100 99 97 100 100 100 37 5 7 83 89 62 60 47 1 0 0 0 0 0 0 0 70 24 92 2 0 0 4 0 15 72
100 100 62 84 78 6 98 39 100 100 100 100 100 91 2 0 0 0 0 0 0 0 0 2 99 32 5 2 0 24 95 95
100 100 100 100 100 100 75 62 100 100 100 100 72 4 0 0 0 0 62 62 21 0 27 83 54 73 90 55 9 100 90 82
100 100 100 98 100 100 100 99 100 100 100 100 4 0 0 0 7 59 100 100 100 100 64 67 80 10 38 100 24 97 100 100
100 100 100 100 100 42 95 100 100 100 100 23 4 0 22 5 11 100 100 100 100 100 96 99 6 11 2 16 25 9 100 100